Location: Bucquoy
(50.1391°N, 2.7097°E)
Time: 09:15:06
(UTC+00:00)

NPP - Pass Details

Date: 06 May 2021
Orbit: 826 x 827 km, 98.7° (Epoch: 22 June)

Event Time Altitude Azimuth Distance (km) Brightness Sun altitude
Rises 02:06:54 0° 13° (NNE) 3,381 8.1 -16.4°
Reaches altitude 10° 02:09:16 10° 10° (N) 2,443 7.1 -16.2°
Maximum altitude 02:14:37 66° 290° (WNW) 902 3.7 -15.7°
Enters shadow 02:17:55 24° 214° (SW) 1,663 4.6 -15.4°
